AXM727 WMKK-WSSS

Flight info

Callsign AXM727
Flight time N/A
Altitude 27000
Route RUSBU1D RUSBU Y511 TOPOR A464 ARAMA DCT TEBUN TEBUN1A
Aircraft A20N/M-SDE2E3FGHIRWXY/LB1

Departure

Time 2026-05-04 12:28
Airport Kuala Lumpur International Airport (WMKK)

Arrival

Time N/A
Airport Singapore Changi Airport (WSSS)
Time Latitude Longitude Altitude Speed Heading
2026-05-04 12:17 2.74108 101.68368 42 ft 1 kts 146°
2026-05-04 12:17 2.74120 101.68361 42 ft 4 kts 155°
2026-05-04 12:17 2.74145 101.68355 43 ft 4 kts 191°
2026-05-04 12:18 2.74166 101.68365 38 ft 2 kts 236°
2026-05-04 12:18 2.74167 101.68366 38 ft 0 kts 236°
2026-05-04 12:20 2.74166 101.68365 38 ft 1 kts 236°
2026-05-04 12:20 2.74150 101.68343 41 ft 7 kts 235°
2026-05-04 12:21 2.74117 101.68294 42 ft 10 kts 235°
2026-05-04 12:21 2.74073 101.68229 42 ft 13 kts 236°
2026-05-04 12:21 2.74020 101.68150 41 ft 15 kts 236°
2026-05-04 12:21 2.73959 101.68059 41 ft 17 kts 236°
2026-05-04 12:22 2.73916 101.68016 39 ft 3 kts 183°
2026-05-04 12:22 2.73900 101.68030 38 ft 5 kts 141°
2026-05-04 12:22 2.73857 101.68062 39 ft 11 kts 146°
2026-05-04 12:22 2.73769 101.68121 39 ft 19 kts 146°
2026-05-04 12:23 2.73653 101.68200 39 ft 21 kts 145°
2026-05-04 12:23 2.73526 101.68287 39 ft 23 kts 145°
2026-05-04 12:23 2.73392 101.68375 39 ft 23 kts 147°
2026-05-04 12:23 2.73253 101.68467 40 ft 24 kts 145°
2026-05-04 12:24 2.73110 101.68564 40 ft 25 kts 146°
2026-05-04 12:24 2.72962 101.68664 40 ft 26 kts 146°
2026-05-04 12:24 2.72809 101.68767 40 ft 27 kts 146°
2026-05-04 12:24 2.72653 101.68873 39 ft 28 kts 146°
2026-05-04 12:25 2.72492 101.68980 38 ft 28 kts 144°
2026-05-04 12:25 2.72329 101.69091 39 ft 28 kts 146°
2026-05-04 12:25 2.72164 101.69202 40 ft 29 kts 146°
2026-05-04 12:25 2.71997 101.69314 40 ft 29 kts 147°
2026-05-04 12:26 2.71877 101.69392 40 ft 14 kts 152°
2026-05-04 12:26 2.71798 101.69360 39 ft 15 kts 227°
2026-05-04 12:26 2.71748 101.69265 39 ft 16 kts 268°
2026-05-04 12:26 2.71796 101.69161 38 ft 17 kts 300°
2026-05-04 12:27 2.71879 101.69054 39 ft 27 kts 324°
2026-05-04 12:27 2.72185 101.68849 37 ft 83 kts 326°
2026-05-04 12:27 2.72811 101.68426 38 ft 131 kts 326°
2026-05-04 12:27 2.73665 101.67850 178 ft 153 kts 326°
2026-05-04 12:28 2.74538 101.67248 632 ft 155 kts 324°
2026-05-04 12:28 2.75297 101.66478 1063 ft 158 kts 303°
2026-05-04 12:28 2.75705 101.65443 1472 ft 164 kts 281°
2026-05-04 12:28 2.75826 101.64304 1887 ft 169 kts 276°
2026-05-04 12:29 2.75911 101.63089 2213 ft 183 kts 274°
2026-05-04 12:29 2.75978 101.61701 2534 ft 218 kts 273°
2026-05-04 12:29 2.76019 101.60112 3059 ft 239 kts 271°
2026-05-04 12:29 2.75778 101.58400 3516 ft 261 kts 248°
2026-05-04 12:30 2.74693 101.56917 4195 ft 271 kts 219°
2026-05-04 12:30 2.72994 101.56107 5051 ft 275 kts 191°
2026-05-04 12:30 2.71070 101.56077 5855 ft 280 kts 173°
2026-05-04 12:30 2.69142 101.56418 6647 ft 284 kts 168°
2026-05-04 12:31 2.67190 101.56829 7410 ft 288 kts 168°
2026-05-04 12:31 2.65204 101.57212 8170 ft 292 kts 169°
2026-05-04 12:31 2.63200 101.57592 8968 ft 295 kts 165°
2026-05-04 12:31 2.61252 101.58241 9757 ft 297 kts 158°
2026-05-04 12:32 2.59299 101.58985 10342 ft 306 kts 159°
2026-05-04 12:32 2.55014 101.60578 10788 ft 348 kts 159°
2026-05-04 12:32 2.52716 101.61426 11348 ft 356 kts 159°
2026-05-04 12:33 2.51160 101.62001 11645 ft 363 kts 159°
2026-05-04 12:33 2.47965 101.63184 12527 ft 367 kts 158°
2026-05-04 12:33 2.45557 101.64076 13216 ft 370 kts 159°
2026-05-04 12:33 2.43133 101.64975 13863 ft 373 kts 158°
2026-05-04 12:34 2.40722 101.65869 14420 ft 377 kts 159°
2026-05-04 12:34 2.38260 101.66812 14986 ft 380 kts 155°
2026-05-04 12:34 2.35933 101.68075 15547 ft 381 kts 145°
2026-05-04 12:34 2.33842 101.69709 16088 ft 383 kts 136°
2026-05-04 12:35 2.31961 101.71609 16630 ft 386 kts 133°
2026-05-04 12:35 2.30078 101.73531 17173 ft 388 kts 133°
2026-05-04 12:35 2.28822 101.74807 17520 ft 390 kts 133°
2026-05-04 12:35 2.26907 101.76749 18031 ft 393 kts 133°
2026-05-04 12:36 2.24979 101.78702 18492 ft 396 kts 133°
2026-05-04 12:36 2.23038 101.80669 18967 ft 398 kts 133°
2026-05-04 12:36 2.21090 101.82643 19412 ft 400 kts 133°
2026-05-04 12:36 2.19128 101.84633 19842 ft 403 kts 133°
2026-05-04 12:37 2.17152 101.86636 20274 ft 405 kts 133°
2026-05-04 12:37 2.15166 101.88648 20702 ft 408 kts 133°
2026-05-04 12:37 2.13168 101.90674 21114 ft 411 kts 133°
2026-05-04 12:37 2.11156 101.92713 21529 ft 413 kts 133°
2026-05-04 12:38 2.09130 101.94767 21940 ft 416 kts 133°
2026-05-04 12:38 2.07134 101.96867 22343 ft 418 kts 128°
2026-05-04 12:38 2.05569 101.99307 22722 ft 419 kts 115°
2026-05-04 12:38 2.04612 102.02058 23095 ft 421 kts 102°
2026-05-04 12:39 2.04297 102.04972 23457 ft 424 kts 92°
2026-05-04 12:39 2.04176 102.07932 23736 ft 427 kts 92°
2026-05-04 12:39 2.04053 102.10901 24082 ft 429 kts 92°
2026-05-04 12:39 2.03927 102.13889 24408 ft 430 kts 92°
2026-05-04 12:40 2.03801 102.16884 24722 ft 432 kts 92°
2026-05-04 12:40 2.03674 102.19895 25036 ft 434 kts 92°
2026-05-04 12:40 2.03543 102.22915 25336 ft 436 kts 93°
2026-05-04 12:40 2.03410 102.25952 25635 ft 438 kts 93°
2026-05-04 12:41 2.03274 102.29003 25928 ft 440 kts 93°
2026-05-04 12:41 2.03138 102.32062 26218 ft 442 kts 93°
2026-05-04 12:41 2.03003 102.35139 26494 ft 444 kts 93°
2026-05-04 12:41 2.02867 102.38230 26741 ft 446 kts 93°
2026-05-04 12:42 2.02731 102.41331 26833 ft 447 kts 93°
2026-05-04 12:42 2.02595 102.44442 26889 ft 448 kts 93°
2026-05-04 12:42 2.02391 102.47553 26890 ft 447 kts 98°
2026-05-04 12:42 2.01690 102.50575 26888 ft 447 kts 109°
2026-05-04 12:43 2.00452 102.53379 26886 ft 447 kts 119°
2026-05-04 12:43 1.98707 102.55951 26890 ft 448 kts 127°
2026-05-04 12:43 1.96821 102.58437 26889 ft 448 kts 127°
2026-05-04 12:43 1.94944 102.60921 26889 ft 448 kts 126°
2026-05-04 12:44 1.93070 102.63408 26887 ft 448 kts 126°
2026-05-04 12:44 1.91197 102.65894 26887 ft 448 kts 126°
2026-05-04 12:44 1.89324 102.68380 26887 ft 448 kts 126°
2026-05-04 12:44 1.87452 102.70865 26887 ft 448 kts 126°
2026-05-04 12:45 1.85578 102.73351 26885 ft 448 kts 126°
2026-05-04 12:45 1.83700 102.75842 26884 ft 449 kts 126°
2026-05-04 12:45 1.81823 102.78334 26886 ft 449 kts 126°
2026-05-04 12:45 1.79944 102.80828 26886 ft 449 kts 126°
2026-05-04 12:46 1.78065 102.83321 26880 ft 449 kts 126°
2026-05-04 12:46 1.76186 102.85814 26881 ft 449 kts 126°
2026-05-04 12:46 1.74323 102.88318 26880 ft 449 kts 124°
2026-05-04 12:46 1.72686 102.90969 26881 ft 448 kts 118°
2026-05-04 12:47 1.71230 102.93725 26887 ft 448 kts 117°
2026-05-04 12:47 1.69768 102.96478 26805 ft 446 kts 117°
2026-05-04 12:47 1.68315 102.99205 26418 ft 443 kts 117°
2026-05-04 12:47 1.66873 103.01908 25898 ft 441 kts 117°
2026-05-04 12:48 1.65430 103.04611 25336 ft 437 kts 117°
2026-05-04 12:48 1.64006 103.07282 24772 ft 434 kts 117°
2026-05-04 12:48 1.62478 103.09869 24200 ft 431 kts 124°